DW7220 Weather Reports


Display with metric or nautical units.
time (UTC)temp
F
wind
direction
speed
MPH
gust
MPH
rain 1hr
in
rain 24hr
in
rain mn
in
humidity
%
barometer
mb
20260504031506 74 32 7.0 14.0 0.00 0.11 0.11 81 1016.2
20260504030027 74 39 5.0 12.0 0.00 0.11 0.11 81 1015.9
20260504024544 74 79 6.0 12.0 0.00 0.11 0.11 80 1015.8
20260504023103 74 89 4.0 10.0 0.00 0.11 0.11 79 1016.0
20260504021520 74 51 5.0 11.0 0.00 0.11 0.11 79 1015.8
20260504020037 74 53 6.0 13.0 0.00 0.11 0.11 78 1015.7
20260504014556 74 28 8.0 13.0 0.00 0.11 0.11 79 1015.5
20260504013110 73 50 9.0 13.0 0.00 0.11 0.11 80 1015.4
20260504011515 73 37 6.0 16.0 0.00 0.11 0.11 80 1015.4
20260504010043 73 55 8.0 13.0 0.00 0.11 0.11 81 1015.4
20260504004557 73 55 5.0 12.0 0.00 0.11 0.11 81 1015.4
20260504003005 73 56 5.0 14.0 0.00 0.11 0.11 81 1015.3
20260504001529 72 33 6.0 13.0 0.00 0.11 0.11 82 1015.2
20260504000059 72 345 7.0 15.0 0.00 0.11 0.11 83 1015.1
20260503234508 72 48 5.0 15.0 0.00 0.11 0.11 84 1014.9
20260503233035 72 34 5.0 12.0 0.00 0.11 0.11 84 1014.8
20260503231551 73 20 8.0 13.0 0.00 0.11 0.11 81 1014.6
20260503230110 73 54 5.0 15.0 0.00 0.11 0.11 81 1014.8
20260503224508 72 64 3.0 8.0 0.00 0.11 0.11 83 1014.7
20260503223032 72 50 4.0 10.0 0.01 0.11 0.11 82 1014.6
20260503221555 72 57 3.0 9.0 0.01 0.11 0.11 85 1014.8
20260503220110 71 49 4.0 9.0 0.01 0.11 0.11 85 1015.0
20260503214509 71 51 6.0 12.0 0.01 0.11 0.11 86 1014.8
20260503213022 71 60 8.0 13.0 0.00 0.10 0.10 86 1014.8
20260503211549 71 63 5.0 12.0 0.00 0.10 0.10 87 1015.0
20260503210101 71 58 5.0 11.0 0.02 0.10 0.10 91 1015.0
20260503204514 71 41 4.0 11.0 0.02 0.10 0.10 90 1015.3
20260503203028 70 49 1.0 8.0 0.02 0.10 0.10 89 1015.6
20260503201537 70 2 2.0 12.0 0.02 0.10 0.10 87 1015.6
20260503194503 71 35 7.0 13.0 0.00 0.08 0.08 85 1015.4
20260503193023 71 39 7.0 13.0 0.01 0.08 0.08 86 1015.5
20260503191537 71 13 9.0 15.0 0.01 0.08 0.08 85 1015.6
20260503190108 70 43 8.0 15.0 0.01 0.08 0.08 87 1015.9
20260503184511 70 32 7.0 13.0 0.01 0.08 0.08 90 1016.2
20260503183028 69 10 7.0 14.0 0.01 0.07 0.07 90 1016.4
20260503181600 70 24 7.0 14.0 0.01 0.07 0.07 90 1016.5
20260503180011 70 27 6.0 14.0 0.01 0.07 0.07 87 1016.6
20260503174524 71 52 6.0 14.0 0.01 0.07 0.07 88 1016.7
20260503173103 71 35 6.0 15.0 0.00 0.06 0.06 86 1016.6
20260503171559 71 17 6.0 12.0 0.00 0.06 0.06 88 1016.7
20260503170113 71 28 7.0 14.0 0.01 0.06 0.06 89 1016.7
20260503110117 69 328 7.0 14.0 0.00 0.05 0.05 96 1014.0
20260503100111 69 354 3.0 7.0 0.05 0.05 0.05 95 1013.5
20260503081620 71 291 2.0 5.0 0.00 0.00 0.00 91 1013.5
20260503071608 71 276 2.0 7.0 0.00 0.00 0.00 90 1012.7
20260503060114 71 277 2.0 8.0 0.00 0.00 0.00 92 1013.1
20260503054534 71 259 3.0 7.0 0.00 0.00 0.00 92 1013.4
20260503053046 72 247 3.0 8.0 0.00 0.00 0.00 92 1013.6
20260503051601 72 285 5.0 8.0 0.00 0.00 0.00 91 1013.5
20260503050018 72 243 3.0 7.0 0.00 0.00 0.00 91 1013.7
20260503044537 73 271 4.0 8.0 0.00 0.00 0.00 90 1013.5
20260503043056 73 262 3.0 8.0 0.00 0.00 0.00 89 1013.1
20260503041609 73 276 5.0 12.0 0.00 0.00 0.00 88 1012.9
20260503040019 74 248 5.0 13.0 0.00 0.00 0.00 87 1013.1
20260503034546 74 248 4.0 10.0 0.00 0.00 0.00 86 1013.2
20260503033103 74 220 5.0 11.0 0.00 0.00 0.00 85 1012.6